Regional Weather Roundup
Issued by NWS

Home | Current Version | Previous Version | Graphics & Text | Print | Product List | Glossary On
Versions: 1 2 3 4 5 6 7 8 9 10 11 12 13 14 15 16 17 18 19 20 21 22 23 24 25 26 27 28 29 30 31 32 33 34 35 36 37 38 39 40 41 42 43 44 45 46 47 48 49 50
000
ASUS45 KBOU 191307
RWRCO

WEATHER ROUNDUP FOR COLORADO
NATIONAL WEATHER SERVICE DENVER/BOULDER CO
700 AM MDT SUN OCT 19 2014

NOTE: "FAIR" INDICATES FEW OR NO CLOUDS BELOW 12000 FEET WITH NO
SIGNIFICANT WEATHER AND/OR OBSTRUCTIONS TO VISIBILITY.

COZ001>005-013-030-031-191400-
...NORTHWEST COLORADO...

CITY           SKY/WX    TMP DP  RH WIND       PRES   REMARKS
CRAIG          CLEAR     27  24  89 CALM      30.21R
HAYDEN         CLEAR     37  27  65 E10       30.21S
MEEKER         PTCLDY    36  31  82 NE3       30.20S
MOUNT WERNER   NOT AVBL
STEAMBOAT SPGS CLEAR     33  29  84 CALM      30.24R
WALDEN         PTCLDY    28  23  80 SE3       30.27S
$$

COZ006>008-011-191400-
...WEST CENTRAL VALLEYS...

CITY           SKY/WX    TMP DP  RH WIND       PRES   REMARKS
GRAND JUNCTION CLOUDY    51  36  56 SE3       30.11R
MONTROSE       MOCLDY    50  38  63 SE9       30.17S
EAGLE          MOCLDY    43  36  75 CALM      30.26S
RIFLE          CLOUDY    49  39  68 S3        30.16S
DELTA          MOCLDY    54  41  62 E3        30.14S
NUCLA          MOCLDY    43  36  75 SE8       30.20S
$$

COZ017>023-064>068-191400-
...SOUTHWEST COLORADO...

CITY           SKY/WX    TMP DP  RH WIND       PRES   REMARKS
DURANGO        PTCLDY    38  35  89 CALM      30.19S
CORTEZ         CLEAR     37  34  89 CALM      30.15R
PAGOSA SPRINGS PTCLDY    39  38  96 CALM      30.26R
TELLURIDE      MOCLDY    44  35  69 CALM      30.32R
WOLF CREEK PAS CLEAR     32  32 100 CALM      30.43R
$$

COZ009-010-012-014-032>034-037-058>063-191400-
...CENTRAL COLORADO...

CITY           SKY/WX    TMP DP  RH WIND       PRES   REMARKS
ASPEN          CLOUDY    45  35  68 S5        30.25R
BUENA VISTA    CLOUDY    45  33  62 CALM      30.26S
COPPER MTN     CLOUDY    37  27  65 S7        30.44S
BERTHOUD PASS  FAIR      32  28  86 N5        30.48R WCI  27
COTTONWOOD PAS CLOUDY    46  30  53 CALM      30.35R
GUNNISON       PTCLDY    37  28  70 CALM      30.29S
KREMMLING      PTCLDY    28  23  80 CALM        N/A
LEADVILLE      CLOUDY    37  29  72 CALM      30.34R
MONARCH PASS   CLOUDY    34  28  80 W9        30.54R WCI  26
SALIDA         CLOUDY    51  33  50 NW7       30.32S
SUNLIGHT       CLOUDY    43  30  61 CALM      30.40S
WILKERSON PASS NOT AVBL
$$

COZ069>075-191400-
...SAN LUIS VALLEY/SANGRE DE CRISTO MOUNTAINS...

CITY           SKY/WX    TMP DP  RH WIND       PRES   REMARKS
ALAMOSA        PTCLDY    37  35  92 CALM      30.25R
LA VETA PASS   CLOUDY    36  34  93 S7G16     30.33S
SAGUACHE       MOCLDY    43  36  75 NW6       30.28R
$$

COZ035-036-038>040-191400-
...NORTHERN COLORADO FRONT RANGE...

CITY           SKY/WX    TMP DP  RH WIND       PRES   REMARKS
DENVER INTL AP PTCLDY    48  34  58 SW8       30.10R
DMNS CITY PARK   N/A     45  35  69 S5        30.11S
AURORA         MOCLDY    45  35  66 S8        30.12R
FRONT RANGE AP PTCLDY    50  36  57 SW8       30.12R
ERIE MUNI ARPT CLEAR     39  36  86 CALM      30.09S
BOULDER MUN AP CLEAR     46  34  61 CALM      30.09R
CENTENNIAL     MOCLDY    44  34  67 CALM      30.13R
BROOMFIELD     PTCLDY    54  30  40 CALM      30.11S
FORT COLLINS   PTCLDY    46  39  76 CALM      30.10S
LONGMONT       PTCLDY    40  35  82 CALM      30.11R
$$

COZ041-046-047-076>085-087-088-191400-
...PIKES PEAK/PALMER DIVIDE AND SOUTHERN FOOTHILLS...

CITY           SKY/WX    TMP DP  RH WIND       PRES   REMARKS
COLO. SPRINGS  MOCLDY    53  33  46 NW9       30.14R
A. F. ACADEMY  PTCLDY    44  34  66 N10       30.15R
ELLICOTT       NOT AVBL
FALCON         PTCLDY    53  28  38 N12       30.16S
FORT CARSON    CLOUDY    50  37  60 NW10      30.11R
LIMON          CLEAR     40  36  86 NW3       30.09R
MONUMENT HILL  CLEAR     43  30  61 W6        30.17R
TRINIDAD       PTCLDY    50  41  71 W16       30.11R
$$

COZ042>045-048>051-090-091-191400-
...NORTHEAST COLORADO...

CITY           SKY/WX    TMP DP  RH WIND       PRES   REMARKS
GREELEY ARPT   PTCLDY    37  30  75 CALM      30.08S
AKRON          CLEAR     42  38  85 W9        30.05R
BURLINGTON     CLEAR     41  39  93 W9        30.02F
WRAY           CLEAR    N/A N/A N/A W7        30.02S
STERLING       CLEAR     36  36 100 SW6       30.03S
HOLYOKE        CLEAR     37  36  93 W6        30.02S
FORT MORGAN    CLEAR     41  37  87 W12       30.06S
$$

COZ086-089-092>099-191400-
...SOUTHEAST COLORADO...

CITY           SKY/WX    TMP DP  RH WIND       PRES   REMARKS
PUEBLO         MOCLDY    47  42  83 N3        30.07R
LA JUNTA       PTCLDY    43  41  93 W9        30.05S
LAMAR          CLEAR     40  39  97 W7        30.02R
SPRINGFIELD      N/A     47  45  93 SW9       30.04S
$$


USA.gov is the U.S. government's official web portal to all federal, state and local government web resources and services.